星链-2533 (STARLINK-2533 )

导读

STARLINK-2533是美国太空探索技术公司(SpaceX)星链(Starlink)卫星互联网项目的一颗卫星,于北京时间2021年4月29日8时发射入轨。 星链项目旨在搭建全球卫星互联网,为偏远地区提供网络接入服务,同时在应急通信、气象观测等领域也可发挥作用,STARLINK-2533的入轨进一步扩充了星链星座的网络覆盖与服务能力。

Basic Information
目录编号:
48294
目录名称:
STARLINK-2533
国际标识:
2021-036U
轨道中心:
EARTH
卫星名称:
星链-2533
卫星全名:
星链-2533 (STARLINK-2533 )
卫星状态:
在轨 (已飞行1876 天)
发射日期:
2021-04-29 UTC
国别 :
美国 (US)
星等 :
--
Orbit Information
数据来源 国际轨道数据 AOE轨道数据
星历时间 2026-06-17T23:32:52+0800
1天前
查看轨道信息
2026-06-18T15:00:00+0800
10小时前
查看轨道信息
半长轴 6848.852km 6848.878km
偏心率 0.0001534 0.0001245
轨道倾角 53.160° 53.158°
近地点辐角 93.403° 66.814°
升交点赤经 330.345° 327.353°
平近点角 266.714° 245.481°
近地点 469.664km 469.888km
远地点 471.766km 471.594km
周期 94.013分钟 94.013分钟
每日圈数 15.317085 15.316999
Detailed Information
固有亮度:
5
最大亮度:
2.5
卫星平台:
Starlink V1.0
覆盖范围:
全球
运营商:
太空探索技术公司
运营商所在国:
美国
制造商(研发单位):
太空探索技术公司
制造商所在国:
美国
使用方式:
暂无
Satellite Introduction
星链(Starlink)计划是由太空探索技术公司(SpaceX)提出的一个巨型低轨卫星互联网星座项目,计划在2019年至2024年间在太空搭建由约1.2万颗卫星组成的“星链”网络,其中1584颗将部署在地球上空550千米处的近地轨道,并从2020年开始工作。该卫星仍在工作。
2D Orbit Map
3D Orbit Map
Orbit Altitude Analysis Chart
Orbit Inclination Analysis Chart
Orbit Comprehensive Analysis Chart
View Comprehensive Chart